Weather in Lugovaya Proleyka

Russia / Volgograd Oblast     49°21′00″N   45°04′24″E
temp.,
°C
wind,
m/s
gust,
m/s
humid.,
%
clouds,
%
prec.,
mm/h
press.,
hPa
HPBL,
m
28 september, tue
tue2800:00+10nnw58855 0.0 1015281
03:00+10nnw46865 0.0 1016199
06:00+9n468746 0.0 1017212
09:00+10nne4575100 0.0 1019494
12:00+11nne5567100 0.0 1020706
15:00+11n456493 0.0 1021754
18:00+10ne6762100 0.0 1023734
21:00+9ne7766100 0.0 1024816
29 september, wed
wed2900:00+9ne5760100 0.0 1025845
03:00+9nne5754100 0.0 10261155
06:00+9nne676071 0.0 1027837
09:00+9nne666075 0.0 1028689
12:00+10nne664819 0.0 10281544
15:00+11nne66446 0.0 10271563
18:00+11nne674854 0.0 10281294
21:00+9ne46525 0.0 1029332
30 september, thu
thu3000:00+8nne56545 0.0 1029319
03:00+7nne56605 0.0 1030259
06:00+6nne57645 0.0 1031279
09:00+8ne57540 0.0 1032482
12:00+10ne55410 0.0 10321400
15:00+12nne44393 0.0 10321568
18:00+11nne45484 0.0 1032574
21:00+9ne46500 0.0 1033249
1 october, fri
fri100:00+8ne34555 0.0 1034153
03:00+8nne34575 0.0 1034171
06:00+8n33575 0.0 1034189
09:00+9nne22505 0.0 1035326
12:00+10nne12435 0.0 1035608
15:00+11n12435 0.0 1034519
18:00+11wsw11465 0.0 103428
21:00+11wnw11545 0.0 103411
2 october, sat
sat200:00+10wnw22515 0.0 103464
03:00+10wnw225296 0.0 103483
06:00+10wnw2253100 0.0 103485
09:00+11nw1151100 0.0 1034131
12:00+12s115055 0.0 1034230
15:00+13s00495 0.0 1033355
18:00+12ssw11605 0.0 103411
21:00+12sw11635 0.0 103410